Погода в Старом Чамзине

Россия / Республика Мордовия     55°03′39″N   45°37′11″E
темп.,
°C
ветер,
м/с
пор.,
м/с
влажн.,
%
обл.,
%
осадки,
мм/ч
давл.,
гПа
погр.,
м
10 апреля, сб
сб1000:000с118598 0.0 102810
03:000всв228799 0.0 102911
06:00−3св2594100 0.0 103080
09:00+1всв3596100 0.0 1030216
12:00+2св4698100 0.0 1028408
15:00+2св48100100 1.1 1028338
18:00+1св3899100 0.1 1027331
21:00+1с2599100 0.1 1027186
11 апреля, вс
вс1100:00+1с2599100 0.1 1026160
03:00+1с3899100 0.1 1027233
06:00+1с3899100 0.0 1029305
09:00+1с4697100 0.0 1030258
12:00+4ссв3586100 0.0 1031322
15:00+5св3580100 0.0 1032297
18:00+3св2289100 0.0 103330
21:00+3св2592100 0.0 1033108
12 апреля, пн
пн1200:00+3св3896100 1.0 1034178
03:00+3всв51198100 4.3 1034246
06:00+3всв51198100 1.0 1034241
09:00+4всв41099100 2.6 1034215
12:00+9в6989100 0.4 1033311
15:00+12вюв5983100 0.5 1032409
18:00+10в3692100 0.0 1032130
21:00+8в3995100 0.0 1032146
13 апреля, вт
вт1300:00+8вюв3791100 0.0 103288
03:00+7юв228828 0.0 103123
06:00+7юв22846 0.0 103117
09:00+12ююв476134 0.0 1031355
12:00+16ю574367 0.0 1029982
15:00+17ю563969 0.0 10281319
18:00+14ююв22549 0.0 102729
21:00+10ююв226316 0.0 102818
14 апреля, ср
ср1400:00+9ю33690 0.0 102821
03:00+8ююв22704 0.0 102815
06:00+8ююв227071 0.0 102717
09:00+13ююв3654100 0.0 1027254
12:00+17ююв464475 0.0 1025874
15:00+18ююв463896 0.0 10241327
18:00+15ююв23515 0.0 102337
21:00+11ююв336311 0.0 102348